Theta_e
303 303 302 302 302 302 302 303 302 302 302 304 305 305 305 306 309 311 313 313 315 315 315 316 316 317 318 321 321 321 321 321 320 321 322 322 323 325 326 326 326 326 326 327 327 327 327 327 327 327 326 326 326 325 325 325 325 325 326 326 326 326 324 322 321 321 321 318 311 311 316 317 316 317
303 303 303 302 302 302 302 302 302 302 302 302 303 305 307 308 308 310 312 312 312 312 313 313 315 316 317 318 319 318 318 318 315 313 315 318 320 322 323 324 325 325 325 325 326 326 326 326 327 327 326 326 326 326 326 326 326 326 326 326 326 326 325 324 322 320 321 320 314 310 314 317 316 316
303 303 303 302 302 302 301 302 302 301 302 302 302 303 306 307 307 308 310 311 311 311 313 313 312 314 314 313 312 310 310 311 309 305 306 309 313 316 318 320 321 322 325 325 326 326 326 326 327 326 326 326 326 326 325 325 326 326 326 326 325 325 325 325 323 322 320 320 318 312 311 315 316 316
303 303 302 302 302 301 301 302 302 302 302 301 301 301 302 304 304 304 307 310 311 310 311 309 308 308 308 308 308 307 306 306 305 303 302 303 305 306 310 314 316 317 320 323 324 325 326 326 326 326 326 326 326 325 325 325 326 326 326 326 325 325 325 325 324 323 321 321 321 317 312 313 316 316
303 302 302 302 302 301 301 301 302 304 304 303 303 304 304 305 305 305 306 308 310 310 309 310 310 309 308 307 307 307 306 305 304 304 304 303 303 302 306 313 316 315 314 316 320 322 324 324 325 325 326 326 326 325 325 325 325 325 326 326 326 326 325 325 325 324 323 321 321 320 317 313 314 316
303 302 302 302 302 301 300 300 301 303 304 304 305 306 306 306 307 307 306 306 308 308 308 308 310 310 308 308 308 308 306 304 303 304 304 304 304 304 307 313 317 317 313 310 311 314 318 322 323 324 324 325 325 325 325 325 325 325 325 325 325 326 326 325 325 324 324 323 321 321 320 317 313 313
303 303 302 302 302 301 301 300 300 301 302 303 305 306 306 306 306 306 305 304 305 307 307 307 308 309 309 308 309 309 307 305 303 303 304 304 305 306 307 308 312 315 314 310 308 308 311 316 320 322 322 323 324 325 325 325 325 325 325 326 325 326 326 326 326 325 324 323 322 321 321 321 316 312
303 303 303 302 302 301 301 299 299 301 302 302 303 304 305 306 306 306 305 304 305 306 307 307 306 307 306 306 307 308 308 307 306 304 304 304 305 307 309 308 310 314 315 310 306 306 308 311 315 318 320 321 322 323 324 325 326 325 325 325 325 326 326 326 326 326 325 324 323 322 321 322 321 316
303 303 303 302 302 302 301 300 299 299 299 299 299 301 303 305 306 307 306 305 305 306 306 307 306 305 305 306 306 306 306 307 307 307 307 305 304 305 306 307 306 308 310 307 304 306 309 311 313 315 317 318 319 321 322 323 324 325 325 325 325 325 326 326 326 326 325 324 323 323 322 321 322 320
303 303 302 302 302 302 301 300 299 298 297 297 297 298 299 301 302 304 304 305 305 305 306 307 307 306 306 306 305 304 305 305 305 305 306 306 305 306 307 308 308 307 309 309 307 307 311 314 316 316 316 317 316 318 319 321 322 323 324 325 325 325 325 325 326 326 326 326 324 324 323 322 322 322
302 302 302 302 302 301 300 300 298 297 297 296 296 297 297 298 300 301 302 303 304 305 305 306 306 306 306 306 306 305 305 305 305 305 306 307 309 310 311 312 312 312 312 311 308 306 307 310 312 314 317 318 317 317 317 318 319 321 322 323 324 325 325 325 325 326 326 326 325 324 323 323 323 322
303 303 302 302 302 301 300 299 297 297 296 296 295 296 297 298 300 302 302 303 304 304 304 305 305 305 306 306 306 306 306 307 307 307 307 308 308 307 306 306 308 309 310 310 310 309 308 308 307 308 312 315 316 317 316 316 316 317 320 321 322 324 325 325 325 325 326 325 325 324 323 323 323 323
303 303 302 302 302 301 300 298 297 296 296 295 295 295 295 296 298 301 302 303 303 304 304 304 305 305 305 305 306 306 307 307 308 308 307 306 305 304 304 303 304 305 307 308 310 311 312 313 313 311 310 309 311 314 315 316 316 315 316 319 320 322 323 324 325 325 325 326 325 324 324 323 323 323
302 302 302 302 301 301 300 298 297 296 296 295 295 295 294 295 296 298 300 302 302 303 304 304 304 305 305 305 305 305 305 305 305 305 306 306 305 305 304 304 304 306 308 309 310 312 313 314 316 316 313 308 306 309 312 313 316 317 315 315 317 319 321 323 324 324 324 325 325 324 324 323 323 323
302 302 301 301 300 299 298 297 296 296 295 295 295 295 295 295 295 296 297 298 299 301 302 303 303 304 304 304 304 304 304 304 304 305 306 306 306 305 305 305 306 307 309 310 311 313 314 315 316 316 316 313 310 312 313 311 314 318 317 316 317 318 321 322 323 324 324 324 325 324 324 324 323 323
301 301 300 299 298 296 296 296 295 295 295 295 295 295 295 296 296 296 296 296 297 298 300 301 302 303 304 304 304 304 304 304 304 304 305 305 305 305 305 305 306 306 307 309 310 311 312 314 315 315 317 315 311 312 314 312 313 318 319 318 318 319 320 321 323 324 324 324 324 324 324 324 324 323
301 300 299 297 295 295 295 295 295 295 295 295 295 296 296 296 296 296 296 296 296 296 297 298 299 301 302 303 303 304 303 303 303 303 303 304 304 304 305 305 305 305 305 306 308 309 309 310 311 313 315 315 311 310 313 313 314 318 319 318 319 319 320 322 324 324 324 324 324 324 324 323 323 322
300 298 296 295 294 294 294 294 294 295 295 295 295 296 296 297 297 297 297 297 297 297 297 297 297 298 299 300 301 302 302 302 302 302 302 302 302 303 304 304 304 304 304 304 305 307 307 307 308 309 312 314 313 312 315 314 314 317 319 319 319 320 321 323 324 324 325 324 324 324 323 322 321 320
297 296 294 294 294 294 294 294 294 295 295 295 296 296 296 296 296 296 297 297 298 298 298 298 298 298 298 298 298 299 300 300 300 300 301 301 301 301 302 302 302 302 302 302 303 304 304 305 305 306 309 313 314 315 315 315 314 316 318 318 319 320 321 322 323 324 324 325 324 323 322 322 320 318
295 294 294 294 293 294 294 294 295 295 295 296 296 296 296 296 296 296 296 297 297 298 298 298 299 299 299 298 298 298 299 299 299 299 299 300 300 300 300 301 301 302 302 302 302 303 304 304 305 306 307 310 313 314 315 315 314 315 317 318 318 318 320 321 322 323 324 324 323 322 321 320 319 318
293 293 293 293 294 294 294 295 295 296 296 296 295 295 295 295 295 296 296 296 296 296 296 296 297 297 297 297 297 297 297 298 298 298 298 298 299 300 300 301 301 302 303 303 303 304 305 306 306 308 308 308 310 312 313 314 313 312 314 317 317 318 319 321 321 322 324 324 322 320 320 319 318 317
294 293 293 294 294 295 295 295 296 296 295 295 295 295 295 295 295 295 295 295 295 295 295 295 295 295 296 295 295 295 296 296 296 297 297 297 297 298 299 300 301 302 303 303 304 304 305 306 307 308 309 309 309 310 312 312 312 310 310 314 316 317 318 320 321 321 323 323 320 319 319 317 316 315
295 294 294 295 295 295 295 296 296 296 295 294 294 293 293 293 294 294 294 294 294 294 295 295 295 295 295 295 295 295 295 295 295 295 296 296 296 297 297 298 299 301 302 303 303 304 305 306 307 308 309 310 310 310 310 311 311 310 308 310 314 317 317 318 319 320 321 320 319 318 318 316 314 313
294 295 295 296 296 295 295 295 295 295 294 294 293 293 292 293 293 293 293 293 294 294 294 294 294 294 294 294 294 294 295 295 295 295 295 295 295 295 296 297 298 299 301 302 303 304 304 305 306 307 308 310 310 310 311 310 310 309 308 308 312 315 317 317 318 319 319 319 318 317 316 314 313 312
294 295 296 296 296 295 294 294 294 294 293 293 293 292 292 292 292 292 292 292 292 292 292 292 292 292 293 293 293 294 294 294 295 295 295 295 295 295 295 296 297 298 300 301 302 303 304 304 305 307 307 308 309 310 310 310 309 309 309 310 311 314 315 316 316 317 318 318 317 316 313 312 311 310
294 295 295 295 294 294 294 294 293 293 292 292 292 292 292 292 292 291 291 290 290 290 290 291 291 292 292 292 293 293 294 294 294 294 294 295 295 295 295 296 297 297 298 299 300 301 302 303 304 306 307 308 309 309 309 309 308 308 309 311 312 313 314 315 316 316 316 317 316 313 310 308 308 308
294 294 294 294 294 294 293 293 293 292 292 292 292 292 292 292 291 291 290 290 289 290 290 290 291 291 292 292 292 293 293 293 294 294 294 294 294 294 295 295 296 297 297 298 299 300 301 301 302 304 306 307 308 309 309 309 308 307 307 308 310 311 313 314 315 315 315 315 314 312 308 305 305 305
294 294 294 294 294 294 294 294 293 293 293 292 292 292 292 291 291 290 289 289 289 290 290 290 291 291 292 292 292 293 293 293 293 293 293 293 294 294 295 295 295 296 297 297 298 299 300 300 301 301 303 305 307 309 309 309 308 308 307 307 308 309 311 312 313 314 314 313 312 311 309 306 303 302
294 294 294 294 294 294 294 294 293 293 292 292 291 291 291 291 290 290 290 290 290 290 290 291 291 292 292 292 293 293 293 293 293 293 293 293 293 294 294 294 295 295 296 296 297 298 299 299 300 300 301 303 305 307 308 309 308 307 307 307 307 308 310 311 312 312 313 312 310 309 308 307 304 301
294 293 293 293 293 293 292 292 291 291 291 290 290 291 291 291 290 290 290 290 291 291 291 291 291 292 292 292 293 293 293 293 293 293 293 293 293 293 293 294 294 295 295 296 296 297 298 298 299 299 300 301 303 305 307 309 308 306 306 307 308 308 310 311 311 311 311 310 308 306 305 305 303 300
293 292 292 292 292 292 291 291 290 290 290 291 291 291 291 291 291 291 291 291 291 291 291 292 292 292 292 292 292 292 292 293 293 293 293 293 293 293 293 293 294 294 295 295 296 297 297 298 298 298 299 300 301 303 305 307 307 306 306 307 308 308 309 310 310 310 309 308 306 304 303 303 302 300
293 292 292 292 292 291 291 291 291 291 291 291 291 291 291 291 291 291 291 291 291 291 292 292 292 292 292 292 292 292 292 292 292 292 292 292 292 292 292 292 293 294 295 295 296 297 297 297 298 298 298 299 300 302 303 305 306 306 306 308 309 308 308 309 309 308 307 306 304 302 301 301 300 298
292 292 291 291 291 291 291 290 290 290 290 290 290 290 291 291 291 291 291 291 291 291 292 292 292 292 292 292 292 292 292 292 292 292 292 292 292 292 292 292 293 293 294 295 296 296 297 297 297 298 298 299 300 301 302 304 305 305 305 306 308 308 307 307 307 307 306 305 302 301 300 299 298 297
292 291 291 291 291 290 290 290 290 290 290 290 290 290 290 290 290 290 290 290 291 291 291 291 291 291 291 291 291 292 292 292 292 292 292 292 292 292 292 292 292 293 293 294 295 296 297 297 297 297 298 299 299 300 301 303 303 304 304 305 306 307 306 306 306 306 305 304 303 302 300 298 296 296
291 291 290 290 290 290 290 290 290 290 290 289 289 289 290 290 290 290 290 290 290 290 290 290 291 291 291 291 291 292 292 292 293 293 293 292 292 292 292 292 292 292 293 293 294 295 296 297 297 297 298 298 299 299 301 302 302 302 303 304 305 306 305 305 306 305 304 303 302 301 299 297 295 294
290 290 290 290 290 290 290 290 289 289 289 289 289 289 289 289 290 290 290 290 290 290 290 290 290 290 290 291 291 292 292 293 293 293 293 293 292 292 292 292 292 292 292 293 293 294 296 297 297 298 298 298 299 299 300 300 301 301 302 303 304 304 304 304 305 304 302 301 300 299 298 296 293 292
290 290 290 290 289 289 289 289 289 289 289 289 289 289 289 289 289 289 289 289 289 290 290 290 290 290 291 291 291 292 293 293 294 294 293 293 293 292 292 292 292 292 292 292 293 293 295 296 297 297 298 298 299 299 299 300 300 300 301 302 303 303 303 303 303 301 300 299 298 297 296 294 292 291
290 290 290 290 289 289 289 289 289 289 289 289 289 289 289 289 289 289 289 289 289 290 290 290 290 290 291 291 291 292 292 293 293 294 294 293 293 293 292 292 292 292 292 292 293 293 294 295 296 297 297 298 298 299 299 299 300 300 301 302 302 302 302 302 302 300 297 296 295 295 294 293 292 291
290 290 290 290 289 289 289 289 289 289 289 289 289 289 289 289 289 289 289 289 289 290 290 290 290 291 291 292 292 292 292 292 292 293 294 293 293 293 293 293 292 292 292 293 293 293 294 295 296 296 297 297 298 299 299 299 300 300 301 301 302 302 302 301 301 299 296 294 294 294 293 293 293 292
290 290 289 289 289 289 289 289 289 289 289 289 289 289 289 289 289 289 289 289 289 290 290 290 291 291 292 292 293 293 293 293 293 293 293 293 293 293 293 293 292 292 293 293 293 294 294 295 296 296 297 297 297 298 299 299 300 300 301 301 301 301 301 301 300 298 295 294 294 294 293 293 293 292
290 289 289 289 289 289 289 289 289 289 289 289 289 289 289 289 289 289 290 290 290 290 290 291 292 292 293 293 293 294 294 294 294 294 293 293 293 293 293 293 293 293 293 293 294 294 295 295 296 296 296 297 297 298 299 299 299 299 299 300 299 299 299 299 300 300 298 296 294 294 293 293 292 292
289 289 289 288 288 288 288 288 288 289 289 289 289 289 289 289 289 289 290 290 290 291 291 291 292 292 293 293 294 294 294 294 294 294 293 293 293 293 293 293 293 293 293 294 294 295 295 296 296 296 296 297 297 298 299 299 299 298 297 297 297 296 296 296 297 298 298 297 296 295 293 293 292 292
289 289 288 288 288 288 288 288 288 289 289 289 289 289 289 289 289 290 290 290 290 291 291 291 292 293 293 293 294 294 294 294 294 294 294 294 294 293 293 293 293 293 293 294 294 295 296 296 296 296 297 297 297 298 298 299 299 298 297 296 295 295 294 294 294 295 296 295 295 294 293 293 293 292
289 288 288 288 287 288 288 288 289 289 289 289 289 289 289 289 289 290 290 290 290 291 292 292 293 293 294 294 294 294 294 294 294 294 294 294 294 293 293 293 293 293 294 294 295 295 296 296 297 297 297 297 298 298 299 298 297 296 295 295 294 293 293 293 293 294 294 293 293 293 293 293 292 292
288 288 287 287 287 288 288 288 289 289 289 289 289 289 289 289 289 289 290 290 290 291 292 293 293 294 294 294 295 295 295 295 295 295 295 294 294 294 294 293 294 294 294 295 295 295 296 296 297 297 297 297 298 298 299 298 297 295 294 293 293 292 292 292 293 293 293 293 292 293 293 292 292 291
Wind_Speed
7 7 6 5 5 6 5 6 6 7 7 7 8 9 9 9 10 10 11 9 7 7 7 8 7 7 7 9 11 12 10 14 19 16 15 16 15 16 18 18 18 20 21 22 25 27 28 27 27 28 29 30 31 32 32 31 30 29 29 29 27 25 22 19 18 19 20 20 20 20 18 16 14 13
7 7 7 7 7 7 7 7 7 7 8 8 7 7 8 9 10 10 12 13 12 11 10 9 8 8 9 11 13 14 12 15 20 21 20 19 19 21 21 19 18 19 19 20 22 25 28 27 27 27 28 29 31 33 34 34 32 31 31 30 30 29 27 24 21 19 20 21 22 22 21 19 17 16
7 7 8 7 7 9 10 10 10 10 9 9 8 8 8 9 11 11 12 14 14 12 11 11 11 12 15 16 18 21 19 19 23 25 24 22 24 27 25 22 21 21 20 21 22 23 25 26 27 27 27 27 29 31 34 36 35 35 34 31 30 31 30 29 26 22 21 21 23 24 24 22 20 19
8 8 10 9 9 11 11 10 11 12 12 11 10 9 9 10 12 13 12 15 16 14 14 17 17 17 18 19 21 23 22 23 25 25 24 24 26 28 26 24 25 25 24 23 24 24 25 25 26 26 26 26 26 27 30 34 37 38 37 35 35 34 34 33 30 27 24 23 23 24 25 25 23 21
9 9 9 9 10 13 12 11 11 10 11 12 11 10 9 10 11 13 13 16 17 17 16 17 16 16 18 20 20 20 22 24 24 23 23 22 22 24 23 21 23 26 27 27 26 26 26 26 27 27 26 26 27 27 27 29 33 37 39 40 39 39 38 36 34 32 30 27 26 25 25 26 25 25
11 11 9 8 11 14 14 13 11 8 9 10 9 9 10 10 11 12 14 16 17 19 18 17 17 17 18 19 18 18 21 23 23 23 23 21 20 20 20 19 19 23 28 30 30 29 28 27 28 28 28 27 28 30 30 30 31 34 37 40 42 41 41 40 39 37 34 32 30 28 26 26 27 27
11 13 12 12 13 15 15 15 13 11 10 9 9 10 11 12 13 14 16 18 18 19 20 19 17 16 16 18 17 16 20 22 22 21 21 21 20 18 19 21 20 21 26 31 32 30 29 30 30 30 30 30 30 31 31 31 32 33 35 38 41 42 42 42 42 41 39 36 34 33 31 28 27 28
13 14 14 14 15 16 17 17 15 12 11 11 11 11 12 13 14 15 17 19 19 18 19 20 19 19 20 20 18 16 18 20 21 21 20 19 19 18 19 19 19 20 25 32 33 31 29 31 31 31 32 32 32 32 32 31 32 33 35 36 38 40 41 42 43 44 43 40 37 36 35 32 29 27
15 15 16 16 17 18 18 17 16 14 14 15 14 13 13 12 13 14 16 18 19 20 20 20 21 22 22 21 21 20 19 19 20 19 19 19 20 20 20 21 22 22 25 29 31 30 30 31 32 33 33 33 33 33 33 33 33 33 34 36 37 38 39 40 42 44 45 43 41 40 38 35 32 29
17 17 17 18 19 19 20 20 19 18 18 18 17 17 16 15 15 16 17 18 20 21 21 21 20 21 21 21 23 23 21 21 22 21 21 21 21 18 17 18 20 21 22 24 26 28 30 30 31 33 33 34 34 34 35 35 35 35 36 36 37 37 38 40 41 43 44 46 45 43 40 38 35 32
18 19 19 19 20 20 21 21 21 21 21 21 20 20 19 18 17 17 18 18 19 20 21 22 21 20 19 19 20 21 20 20 22 22 21 18 15 13 14 15 16 17 20 22 25 27 29 30 33 33 31 31 33 34 35 36 36 36 37 38 38 38 38 39 41 42 44 46 47 45 43 40 38 36
20 20 20 21 21 22 22 22 22 22 22 22 22 21 20 19 18 18 18 18 19 20 21 22 21 20 19 18 18 19 18 17 16 15 15 16 17 19 21 22 21 20 21 22 23 24 25 28 31 34 35 34 32 32 34 36 37 38 37 38 39 39 39 39 40 41 43 44 47 47 46 42 40 38
21 21 22 23 23 23 23 23 23 24 23 23 23 22 21 21 20 19 19 19 19 19 20 21 20 20 20 19 18 17 16 15 15 15 17 21 24 24 26 27 26 23 22 22 21 21 22 22 23 27 33 37 36 35 35 35 36 38 38 38 38 39 40 40 40 40 41 43 45 46 47 47 44 41
22 22 22 24 25 26 26 25 25 25 24 24 24 24 23 23 22 22 21 21 20 20 21 22 21 21 21 20 19 19 19 19 20 20 20 21 22 22 24 26 24 20 19 20 21 20 20 20 20 22 27 34 37 37 37 37 36 36 38 38 37 38 39 40 40 40 40 41 43 43 46 48 47 44
21 22 23 24 26 28 28 28 28 27 27 26 25 25 25 25 25 25 26 26 25 24 23 23 22 23 23 21 20 21 21 20 21 20 18 18 18 19 20 21 19 16 14 15 18 19 18 18 20 21 23 27 31 30 32 37 36 34 34 36 36 36 37 38 39 40 40 40 41 42 43 47 49 48
20 22 23 25 27 28 28 28 28 29 29 29 29 28 28 27 27 27 28 29 29 28 27 26 25 24 24 23 21 20 20 19 19 19 18 18 18 19 19 20 20 19 17 17 18 19 19 18 19 21 21 24 28 27 29 34 35 32 32 33 34 34 35 36 37 39 40 40 41 41 43 47 50 51
22 23 25 26 27 28 29 29 29 29 29 29 30 31 31 31 30 29 29 29 30 31 31 32 32 29 26 24 22 20 19 20 21 21 21 20 20 21 21 21 21 21 21 20 19 19 20 20 21 22 21 23 27 28 28 32 33 30 30 31 32 32 33 33 35 38 39 40 42 42 43 47 50 52
24 25 26 26 27 27 28 29 29 29 29 29 30 30 30 30 29 30 30 29 29 30 31 34 36 35 32 31 28 24 21 22 23 24 23 23 23 23 23 23 23 23 24 24 23 23 23 22 24 25 22 21 24 23 24 28 31 29 27 28 29 30 31 32 33 35 38 40 41 41 42 45 49 52
25 26 26 27 27 28 28 29 29 29 29 30 31 31 31 31 31 30 30 27 25 24 25 28 29 28 27 28 28 25 23 24 26 26 25 25 25 25 25 25 26 26 26 26 26 29 29 26 27 28 23 20 20 20 23 27 29 29 26 25 26 28 29 30 31 33 36 39 39 40 41 42 45 49
26 26 27 26 26 28 28 28 30 30 29 29 31 32 32 32 32 31 30 29 28 27 28 29 28 26 25 25 26 26 26 28 29 29 28 25 22 23 25 26 26 25 25 25 26 29 29 26 27 28 25 22 21 20 22 27 31 30 27 23 23 24 26 28 29 31 34 37 37 37 39 39 41 45
26 27 28 27 27 28 28 28 30 30 28 29 30 30 31 31 30 30 28 28 29 30 32 34 35 35 36 35 35 34 34 33 31 31 33 28 22 24 27 27 26 24 23 22 22 25 26 22 22 24 23 24 25 22 21 27 32 32 29 25 22 21 22 24 27 29 32 34 34 34 35 35 37 41
23 26 28 30 30 29 28 28 28 27 26 28 27 26 25 26 26 26 25 24 24 24 27 29 31 34 36 37 38 39 39 38 36 37 41 34 25 27 31 29 27 26 24 22 20 23 25 21 20 22 20 20 23 21 20 26 31 30 29 28 25 22 21 22 24 27 30 31 30 30 31 31 34 39
21 24 27 29 29 29 29 29 28 26 26 26 25 23 22 23 24 23 22 21 21 20 21 22 23 24 25 26 28 29 30 32 33 37 42 38 31 31 33 30 27 27 25 21 19 23 25 21 20 21 19 18 19 18 19 25 29 29 29 29 27 24 22 22 22 23 26 27 26 26 26 27 31 36
22 23 22 21 22 26 29 30 29 27 27 27 26 24 23 24 25 23 21 21 23 24 24 23 23 23 23 22 22 22 23 24 26 29 32 32 30 31 32 30 29 29 26 19 17 21 24 22 22 22 21 20 17 14 18 24 28 27 26 25 26 26 24 22 21 21 22 23 24 23 21 22 26 31
22 22 20 18 20 25 29 30 29 29 28 28 28 28 27 28 28 28 28 27 27 28 28 27 26 26 25 24 22 21 21 21 22 22 24 25 26 29 31 30 30 32 29 22 19 21 22 21 22 21 22 23 20 16 16 19 23 25 21 19 22 25 26 25 22 20 21 21 22 20 18 19 23 27
23 23 23 22 24 27 30 30 30 30 28 28 29 30 30 31 30 30 30 28 26 25 25 24 24 24 23 22 21 21 21 20 21 21 22 22 24 27 30 31 31 31 29 24 23 24 24 22 21 20 21 22 22 22 19 16 19 23 22 19 20 21 23 24 22 20 20 20 21 20 18 19 22 24
25 26 25 25 26 28 29 29 29 29 27 27 28 28 27 27 27 26 27 26 25 25 24 24 23 22 21 21 21 21 20 20 20 20 20 22 25 28 30 32 32 32 29 25 24 25 26 26 23 21 22 21 21 23 23 20 20 24 23 21 21 19 19 19 19 20 19 18 20 19 18 20 23 23
26 26 25 25 27 28 28 29 29 28 26 25 24 24 23 23 24 24 24 24 24 24 24 24 24 23 22 22 22 21 20 19 19 19 19 21 24 27 28 29 30 30 29 28 27 27 27 27 26 23 22 22 22 23 23 22 22 23 22 21 21 21 19 17 17 19 19 19 19 20 20 22 24 25
26 26 26 27 29 29 29 29 27 25 23 22 22 22 21 20 21 21 20 20 21 23 23 23 23 23 23 23 23 21 20 19 19 19 19 19 21 23 26 27 28 28 27 27 29 29 28 27 27 25 23 23 23 23 23 21 19 19 20 20 20 19 18 17 17 18 19 20 20 22 23 23 25 27
28 28 30 31 31 29 27 25 23 20 19 20 20 19 18 17 17 17 17 18 19 20 21 22 22 22 21 21 20 19 19 20 21 21 20 20 19 21 23 25 27 28 28 27 29 30 28 26 26 26 25 24 24 24 23 19 16 17 18 18 18 18 18 18 18 19 20 21 22 23 24 25 26 28
26 29 30 29 26 23 20 20 19 19 18 18 17 16 16 16 16 16 17 18 19 20 20 20 21 21 21 20 19 19 19 21 23 23 22 21 21 22 22 23 26 26 26 27 28 29 29 27 26 26 26 25 26 26 23 20 18 19 19 17 16 17 17 17 19 21 22 23 23 25 26 26 27 27
27 28 25 21 17 16 15 16 16 16 16 16 16 16 16 16 16 16 18 20 21 21 21 21 22 22 22 23 24 24 23 23 24 23 22 22 24 25 23 24 26 25 24 25 26 26 28 29 28 28 27 26 26 26 24 22 22 22 21 18 17 18 17 17 19 22 24 24 25 27 29 28 27 26
27 24 18 14 14 14 14 14 15 16 16 16 17 17 17 17 17 17 18 19 20 20 20 21 23 23 24 24 25 26 26 27 27 25 24 25 26 25 25 26 27 26 25 25 25 25 26 28 28 29 28 27 27 26 24 23 23 23 21 18 18 19 19 18 18 21 24 26 28 29 29 27 26 26
22 18 13 13 13 14 14 15 16 16 17 18 18 18 17 17 17 18 19 20 20 20 21 22 24 24 25 26 27 27 28 30 30 29 28 29 29 27 26 27 29 28 27 25 25 24 25 25 26 28 29 29 29 28 27 25 25 24 22 20 18 20 21 20 20 22 25 27 29 30 29 28 27 26
16 12 12 13 13 13 14 15 16 17 18 18 19 19 18 17 17 18 19 20 19 20 21 23 23 24 25 27 28 29 30 31 31 31 30 30 31 30 28 28 29 29 29 28 26 24 24 24 25 26 28 30 30 30 30 29 28 26 24 22 20 20 21 22 22 23 25 27 29 29 31 31 29 26
12 12 13 13 13 14 15 15 16 17 17 17 18 17 17 18 18 18 19 19 19 20 22 24 24 25 26 27 29 30 31 32 32 31 30 29 30 30 30 30 30 30 31 31 29 26 25 25 26 26 27 28 28 28 29 30 31 29 25 23 22 22 22 23 24 25 26 28 29 30 32 33 30 27
11 13 13 13 14 14 15 16 16 16 17 17 18 18 19 20 20 19 20 20 21 23 25 26 26 27 27 28 28 29 30 30 31 31 31 30 29 29 30 31 31 31 32 31 30 29 27 27 28 28 27 25 24 24 24 25 29 31 28 24 22 22 23 25 26 26 26 28 30 31 32 32 30 27
12 13 13 14 14 15 16 16 17 17 19 22 22 22 22 22 22 22 23 23 23 24 25 25 26 26 26 26 27 27 27 28 29 29 30 29 28 28 28 29 29 30 30 29 29 29 29 29 30 30 27 24 22 22 21 22 25 29 31 29 25 23 24 27 27 27 27 29 30 31 31 30 29 27
13 13 13 14 14 15 16 17 16 18 22 25 25 25 25 24 25 25 25 25 25 25 25 25 25 26 26 26 25 26 27 27 28 28 29 29 28 27 27 27 26 26 26 27 28 28 28 29 31 31 29 26 22 20 19 21 25 29 31 30 25 23 25 28 29 29 30 31 32 33 32 29 27 26
14 13 13 14 15 16 16 16 17 20 24 26 27 26 26 26 27 27 26 25 25 24 25 25 24 23 24 24 23 24 26 27 28 28 28 28 28 27 25 25 24 23 23 24 26 27 28 29 30 30 29 26 23 21 20 22 24 27 28 26 22 20 22 26 29 31 33 35 37 37 34 30 29 29
14 14 13 14 15 16 16 17 20 24 27 28 28 28 27 27 27 27 26 25 23 23 23 23 22 22 22 22 21 22 24 26 27 26 25 25 26 25 24 23 23 22 21 22 23 24 25 26 25 25 25 24 24 24 24 22 23 24 25 25 23 20 21 24 28 31 33 36 38 36 34 33 33 32
15 15 14 15 15 16 17 20 24 27 28 29 29 29 28 28 28 27 26 24 23 22 23 23 22 22 21 20 20 20 21 23 24 24 22 22 22 22 21 22 22 21 20 20 20 20 21 22 21 21 22 23 24 25 26 25 25 25 27 26 25 23 24 26 29 30 31 33 36 36 36 37 35 33
16 15 15 16 16 17 20 24 27 28 29 30 30 29 29 29 29 27 26 25 24 23 23 22 21 20 18 18 17 17 18 18 18 19 18 18 18 19 19 20 20 20 20 19 19 19 18 18 19 20 20 22 24 26 27 28 27 28 29 29 26 25 26 28 30 29 29 31 32 32 34 36 36 34
16 16 16 17 18 19 22 25 27 29 29 30 30 30 29 30 29 28 27 26 24 23 22 20 18 16 15 14 13 12 12 12 12 13 14 14 15 16 17 17 17 18 17 18 19 18 17 15 16 17 19 23 26 28 28 29 30 31 32 31 29 29 31 31 31 30 30 30 29 29 31 32 32 31
16 17 18 19 20 22 24 27 28 29 30 30 30 30 30 29 29 29 27 26 25 23 20 17 15 14 12 10 9 8 8 8 8 9 10 11 12 13 14 15 15 16 17 18 19 18 15 14 16 19 22 27 29 28 28 30 32 33 33 32 31 32 33 34 35 34 34 32 29 27 27 26 25 25
Wind_Direction
341 343 345 340 332 326 321 313 306 301 299 296 297 299 296 288 286 291 292 288 281 276 275 276 268 259 260 263 261 259 262 264 261 260 261 260 262 264 261 258 256 255 253 249 245 242 241 242 242 243 242 240 241 243 246 247 247 248 252 255 256 255 256 258 259 258 256 251 245 236 230 232 237 244
339 343 347 348 346 342 341 336 330 326 319 312 301 291 288 283 277 276 282 285 283 280 278 277 273 267 264 266 268 268 267 267 264 260 258 258 259 259 258 259 259 260 259 255 248 244 243 244 244 244 244 243 242 241 243 246 247 246 248 252 255 254 253 253 253 254 254 252 247 239 234 234 237 246
335 338 341 347 346 344 346 344 340 337 331 327 318 299 287 281 275 271 273 278 282 282 277 271 267 268 268 269 272 274 275 275 274 272 269 264 259 257 258 262 261 258 257 256 253 249 246 245 245 246 246 245 244 242 242 244 246 247 246 247 249 250 249 249 249 250 251 251 249 243 237 236 238 245
329 334 339 340 338 341 346 341 334 334 330 329 327 313 301 292 288 284 277 275 278 280 279 278 279 279 276 275 278 281 283 280 278 280 278 273 267 263 262 263 262 259 255 254 254 252 251 248 246 247 245 242 241 240 241 243 244 246 247 246 247 249 249 249 248 248 248 249 250 247 242 238 237 241
322 330 337 332 328 334 338 335 329 322 317 320 322 312 301 293 289 288 283 280 282 285 285 285 286 284 282 282 282 282 283 282 282 284 283 280 277 273 268 264 263 262 257 254 252 252 253 253 251 249 246 241 237 237 239 241 243 245 247 247 247 249 250 249 248 247 248 249 250 251 248 242 238 238
310 320 327 321 318 324 329 331 328 311 301 303 297 286 284 279 276 277 279 281 283 287 289 288 287 287 287 287 285 282 282 283 284 284 283 283 281 277 269 261 260 262 260 257 254 252 251 253 253 252 250 245 240 239 240 241 242 243 245 246 247 248 249 249 249 247 247 248 250 251 252 247 241 239
296 307 314 313 314 320 324 325 324 315 306 299 283 276 277 277 277 276 279 282 283 285 289 291 289 287 286 285 285 283 284 289 291 288 284 282 279 276 271 265 262 263 263 261 257 254 253 252 252 252 252 251 246 244 244 243 242 242 244 245 246 247 248 249 250 249 246 246 248 249 251 250 245 241
291 297 304 306 309 314 317 319 320 314 304 297 290 284 281 281 283 282 284 287 285 282 285 287 287 285 285 287 286 283 284 289 293 294 291 285 279 273 270 269 264 259 260 262 262 259 256 253 253 252 251 252 252 250 248 246 245 244 244 245 245 246 246 247 249 250 248 246 246 247 248 250 248 243
289 293 298 302 305 309 312 314 314 308 302 301 297 291 284 277 275 275 279 283 282 280 281 282 285 287 288 288 287 286 286 286 289 292 291 289 286 279 271 267 265 262 263 266 265 262 258 256 254 253 251 251 253 254 252 249 246 244 245 246 246 246 246 246 247 249 250 248 246 246 247 248 249 246
285 290 295 299 303 307 310 311 311 308 306 305 302 298 293 286 279 274 274 276 278 279 280 280 282 285 286 286 288 291 291 288 288 290 291 292 295 292 280 271 270 271 270 267 263 259 257 255 253 252 252 252 252 253 254 254 251 247 246 247 247 247 246 246 246 247 249 248 245 244 246 247 247 246
284 289 294 298 303 307 309 310 311 310 309 307 304 302 299 295 289 283 279 278 276 276 277 278 279 281 282 283 285 289 290 288 291 294 293 294 294 288 278 271 267 266 265 266 265 263 259 257 254 253 253 252 252 252 252 254 254 253 250 249 248 248 248 247 246 246 247 249 246 244 245 246 246 245
280 286 290 295 300 305 308 309 308 308 307 305 302 299 295 290 285 281 279 277 276 276 276 277 278 279 279 279 280 285 287 287 290 290 285 282 282 281 280 277 272 267 266 266 268 268 266 263 260 257 254 252 252 253 253 252 253 254 254 253 251 249 249 248 247 246 246 248 247 245 245 246 246 244
277 281 286 292 296 300 303 305 304 304 303 302 299 297 293 287 282 278 275 273 273 273 273 274 276 276 275 276 278 279 278 277 279 279 277 280 285 287 287 284 280 275 273 270 267 265 265 263 260 257 256 254 253 253 253 252 252 253 254 255 254 252 251 250 249 247 245 245 247 247 247 246 245 243
277 282 288 294 299 301 302 302 301 302 302 301 299 297 293 287 281 275 271 270 270 270 271 272 272 272 271 271 273 275 275 276 279 281 282 283 287 288 287 287 286 280 275 274 271 266 261 258 255 255 257 257 255 254 254 253 253 252 253 255 257 256 255 253 251 250 247 245 246 246 247 248 246 245
280 287 293 298 301 303 304 305 305 304 303 301 298 295 292 288 282 277 273 271 268 266 267 269 268 269 269 269 269 271 274 277 278 280 280 279 281 282 282 282 282 277 271 271 271 267 259 255 255 255 255 255 254 254 254 253 253 253 252 253 255 256 256 255 253 250 247 246 246 244 245 247 247 245
285 291 295 299 301 303 304 305 306 306 305 304 301 297 293 289 284 279 275 273 270 267 265 265 264 264 267 269 269 269 271 274 276 276 275 275 275 275 274 273 272 271 267 266 268 265 256 251 254 256 254 252 250 251 253 253 254 256 255 253 253 254 255 255 254 250 246 245 245 243 242 245 246 246
288 292 297 300 302 304 305 305 306 306 305 303 301 299 296 293 290 286 280 275 272 268 264 261 260 260 261 263 263 262 264 269 272 273 272 272 272 271 270 269 271 272 267 264 267 267 258 250 251 252 253 255 254 253 255 255 253 256 258 256 255 254 254 254 252 249 246 244 244 242 241 243 246 246
291 295 299 302 303 304 304 304 303 302 300 298 295 293 292 290 288 286 284 281 278 274 269 265 263 261 259 258 258 259 262 266 270 271 271 270 269 269 269 267 268 267 263 260 263 266 264 259 257 255 253 256 258 255 256 256 254 252 254 255 255 254 253 252 250 248 246 244 243 241 239 242 246 244
296 299 301 302 303 302 301 300 298 296 295 293 291 289 287 285 283 279 277 275 272 271 269 269 269 265 260 258 257 256 256 256 257 259 263 267 268 268 268 267 266 262 260 259 260 263 265 266 265 262 257 254 256 254 255 258 256 251 249 250 252 252 251 250 248 247 246 244 242 239 237 240 244 242
298 299 300 301 301 299 299 298 295 295 294 291 289 288 287 286 284 279 275 270 265 260 256 255 256 256 255 255 254 252 249 247 246 247 250 257 264 266 266 266 264 262 260 258 256 259 264 266 265 265 259 251 249 247 251 258 257 248 241 244 251 253 252 250 247 245 245 242 238 235 234 237 241 241
298 299 299 299 298 297 297 295 293 293 294 291 289 287 285 284 282 279 277 275 272 269 263 257 255 255 255 253 253 253 251 249 248 248 250 253 257 260 262 263 263 261 259 254 249 253 258 259 259 262 260 253 249 243 243 255 258 250 239 239 248 254 253 250 246 242 241 240 235 232 233 235 238 239
295 297 299 300 299 298 298 297 294 294 294 293 290 286 284 281 278 277 276 275 273 274 273 271 268 266 264 261 260 259 257 254 249 246 248 252 255 256 258 260 263 262 257 251 245 248 253 253 251 255 258 255 250 241 238 250 257 255 246 239 241 248 251 248 246 241 239 238 233 229 232 236 236 235
292 297 301 302 303 303 302 300 297 296 296 295 292 287 282 278 276 276 276 275 273 273 273 273 273 272 272 272 270 267 265 263 256 249 248 248 249 253 255 256 258 260 257 250 242 244 249 249 247 248 247 248 247 238 236 247 253 256 253 244 237 240 244 245 245 243 239 237 231 225 229 236 236 234
295 298 298 297 298 299 299 299 300 300 300 297 293 287 280 277 277 277 275 270 267 267 268 268 267 267 267 267 266 264 264 264 263 259 254 247 244 248 251 250 251 252 253 249 243 246 250 249 247 246 242 245 246 234 232 243 251 256 257 249 238 235 240 243 243 242 239 234 229 225 227 233 236 235
298 296 292 289 286 287 290 295 299 301 300 297 292 286 280 279 280 278 274 271 267 265 266 267 266 266 265 264 262 261 259 257 256 256 254 248 245 245 247 247 248 250 251 246 240 246 251 249 247 247 244 244 244 236 229 238 251 256 253 245 236 233 237 241 241 237 234 230 225 221 220 226 231 232
297 293 292 290 287 289 295 301 303 303 301 296 290 286 284 284 283 279 275 273 270 268 267 267 266 265 263 262 260 259 257 256 254 251 250 248 247 246 247 247 247 250 253 248 240 243 247 248 247 247 246 245 243 239 231 231 248 255 248 238 234 231 232 236 236 232 230 227 223 217 212 218 225 227
298 296 296 295 295 299 304 304 302 300 297 293 289 288 286 283 281 278 274 270 268 266 265 264 262 262 260 260 260 258 257 256 254 253 252 250 249 249 250 249 248 250 251 249 243 241 244 246 246 245 246 248 245 240 232 230 247 260 256 242 237 234 229 227 227 226 225 223 221 215 209 213 218 219
302 299 299 301 303 306 306 304 303 302 300 298 297 294 290 287 282 276 271 267 266 265 262 260 260 261 260 260 260 260 259 258 256 253 252 251 249 250 250 250 250 249 249 246 243 241 242 244 244 243 244 247 247 244 237 232 241 256 260 249 239 236 232 225 221 221 221 218 215 212 209 210 212 212
312 309 310 313 314 313 311 310 309 307 305 306 306 302 298 292 284 275 268 265 264 262 261 260 261 262 262 262 263 263 261 259 255 252 252 252 250 249 249 249 248 246 245 245 242 237 237 240 241 241 241 243 245 246 244 238 233 240 252 251 237 230 231 228 222 220 219 215 211 209 209 209 207 206
320 317 317 318 317 315 315 314 311 307 307 310 310 308 304 296 286 278 272 267 263 262 262 262 263 264 264 264 263 262 258 257 256 254 253 252 250 249 248 248 248 246 244 245 241 235 233 236 238 238 239 240 241 242 242 242 232 226 236 242 232 223 225 224 220 219 216 211 208 206 207 207 205 204
315 313 314 315 314 313 313 313 311 310 312 311 307 302 298 291 282 275 271 267 266 265 265 265 264 264 265 264 262 260 257 257 258 258 254 251 250 251 249 248 249 248 244 243 241 236 235 236 235 235 237 238 239 238 239 241 235 224 225 233 231 228 228 223 219 217 214 208 204 202 203 204 204 202
316 315 314 313 311 309 307 307 307 306 303 300 295 291 288 283 277 272 269 267 266 266 266 266 266 266 265 264 263 263 260 258 258 257 254 251 252 254 251 247 248 249 244 240 238 236 236 236 234 234 235 234 235 235 233 234 235 232 230 232 229 227 230 228 220 215 211 205 200 199 200 201 199 197
321 320 315 308 307 307 305 304 304 302 300 297 294 291 287 283 279 276 272 270 269 267 266 265 265 265 265 265 265 264 261 260 259 257 255 255 255 254 251 247 246 245 243 240 238 234 235 236 234 233 232 230 231 232 228 228 234 237 236 233 229 227 230 229 222 216 211 204 199 198 197 195 193 193
322 320 313 308 307 307 306 305 303 303 303 301 298 295 291 285 281 278 276 274 272 270 268 267 266 266 265 266 266 264 262 262 263 262 260 259 257 253 250 249 248 244 240 239 239 236 234 233 233 233 232 228 229 230 227 227 235 240 238 234 233 234 233 226 219 216 212 207 204 200 193 188 189 191
329 318 308 307 307 305 305 305 304 304 304 302 300 298 294 289 284 279 278 279 277 274 272 271 270 269 268 268 268 268 268 269 270 268 266 263 259 255 251 250 248 244 240 240 240 237 233 230 229 231 230 227 227 229 227 227 234 241 239 235 233 235 233 226 219 215 210 207 206 200 190 184 184 185
327 313 307 307 306 305 305 305 305 306 305 304 302 299 295 294 291 286 284 283 280 277 276 276 275 274 272 272 273 273 274 274 274 272 269 264 260 256 253 251 249 245 242 241 240 236 231 227 226 228 228 224 224 227 228 229 232 236 235 232 230 230 229 223 217 212 207 204 202 198 190 182 178 178
318 314 311 305 304 304 305 307 309 309 310 309 307 305 302 301 298 293 292 290 287 286 287 286 284 283 281 280 279 278 277 276 274 272 269 265 261 256 252 251 251 249 246 243 240 235 230 226 225 227 227 224 222 224 226 228 230 231 231 228 227 228 227 219 211 205 199 196 196 195 188 178 171 173
322 320 314 309 308 308 307 309 310 313 317 320 318 314 311 309 307 305 305 302 301 300 299 296 292 290 289 286 283 280 278 276 273 270 266 264 261 255 250 250 251 250 249 245 239 235 231 227 225 225 225 223 222 221 221 222 224 226 227 226 227 228 225 217 208 199 190 186 187 187 184 177 172 171
327 324 319 315 313 311 311 313 312 315 321 325 324 321 318 317 316 316 315 312 310 308 305 301 298 295 292 289 285 281 278 273 269 267 265 263 260 256 252 249 247 246 246 243 238 233 230 226 225 224 223 223 222 220 222 224 222 220 222 225 228 228 222 213 202 191 181 179 179 179 179 180 176 170
332 327 323 319 316 315 315 316 317 322 327 329 329 327 326 324 323 323 320 317 314 312 309 305 303 300 297 293 288 282 277 271 268 267 264 261 259 256 253 249 244 239 238 238 236 232 228 225 224 223 224 226 226 224 227 227 221 216 216 218 220 222 223 216 203 188 180 179 181 180 178 176 171 166
335 330 327 323 320 319 319 321 327 332 334 335 334 333 332 331 329 328 326 323 320 319 316 313 311 308 303 298 291 282 274 269 267 265 261 257 255 255 252 246 238 233 231 233 233 231 227 224 223 222 223 226 227 225 222 216 208 202 202 202 201 204 212 215 208 199 193 188 184 179 173 169 166 165
337 334 331 326 324 324 326 331 337 338 338 337 337 336 335 334 332 331 330 329 328 327 324 321 319 314 309 302 293 282 273 267 263 261 258 254 251 251 248 241 235 230 227 226 226 227 226 223 221 220 221 222 224 222 214 205 197 190 186 185 186 189 193 195 196 198 197 191 183 176 170 166 165 165
339 336 331 329 331 332 334 340 343 343 341 341 340 340 338 336 335 335 334 333 333 333 330 326 323 320 314 305 294 281 272 267 261 255 253 251 247 245 242 238 234 228 222 220 221 223 224 221 217 217 220 221 220 216 206 197 192 186 180 177 177 179 180 181 184 185 183 180 179 177 172 169 169 169
339 336 334 337 339 340 342 346 347 345 344 343 342 342 340 337 337 338 337 336 337 336 334 331 329 327 321 310 297 282 271 265 260 252 248 248 246 240 234 230 229 223 216 217 220 222 223 222 218 219 218 213 210 208 201 191 182 176 172 171 171 169 168 171 173 172 168 167 171 175 174 174 175 174
338 335 337 343 345 346 349 351 349 348 347 345 343 342 341 340 339 339 339 340 342 340 336 334 335 334 325 309 299 293 281 268 261 254 248 247 246 240 232 228 224 217 213 218 224 224 223 219 209 204 201 197 197 199 197 188 178 169 164 163 163 162 162 163 164 162 159 160 165 171 174 175 174 168